Starlink 36942

operational
NORAD ID: 68030 Int'l Des: 2026-040 Owner: SPXS Country: US Constellation: starlink
LEOCIRCULARRETROGRADE

Über Starlink 36942

Beschreibung wird geladen...

Live-Position

3D-Globus wird geladen...

Nächste Überflüge

Höhenverlauf

Altitude vs Time

uPlot chart will show altitude changes over time

Zweizeiliger Elementsatz

1 68030C 26040R 26061.10465278 .00617120 00000+0 66930-3 0 610
2 68030 97.2857 8.4879 0010172 256.7881 209.0469 16.09162972 15
Epoch: 2. März 2026 • Age: 30 hours

Aktueller Status

Höhe 253.3 km
Geschwindigkeit 7.75 km/s
Subsatellitenpunkt -23.05°S, 116.99°E
Startdatum 1. März 2026
Alter 1 days
Typ internet

Technische Details

Klassifizierung Payload
Masse 575.00 kg
Trockenmasse 530.00 kg
Gesamtmasse 575.00 kg
Länge 0.30 m
Durchmesser 4.10 m
Spannweite 29.00 m
Form Box + pan
Hersteller SPXS
Bus-Typ Starlink V2MO
Phasenstatus In Orbit
Besitzer/Staat SPXS/US

Große Konstellationen

Loading constellations...